When you browse on this site, cookies collect data to enhance your experience and personalize the content and advertising you see.
Visit our Privacy Policy to learn more. By continuing to use the site, you agree to this use of cookies and data.
  • în România
  • Lista ţărilor
  • Pe 7 zile
  • Temperatura apei
  • Hartă satelitară
  • Meteo pe hartă
  • Widget-uri
  • user-avatar
    Intrare

    Meteo pe oră la Podgorodnee

    Astăzi, 21 Iulie, Duminică

    Timp Temperatura Precipitaţii Vânt Presiune Umiditate
    00:00 +14°C° 0 mm 1 m/s 744 mmHg 98%
    01:00 +13°C° 0 mm 1 m/s 744 mmHg 98%
    02:00 +13°C° 0 mm 1 m/s 744 mmHg 98%
    03:00 +13°C° 0 mm 1 m/s 745 mmHg 98%
    04:00 +13°C° 0 mm 1 m/s 745 mmHg 98%
    05:00 +13°C° 0 mm 1 m/s 745 mmHg 98%
    06:00 +15°C° 0 mm 1 m/s 745 mmHg 94%
    07:00 +18°C° 0 mm 1 m/s 745 mmHg 89%
    08:00 +20°C° 0 mm 1 m/s 745 mmHg 84%
    09:00 +21°C° 0.1 mm 1 m/s 745 mmHg 77%
    10:00 +22°C° 0.1 mm 1 m/s 745 mmHg 70%
    11:00 +23°C° 0.1 mm 1 m/s 746 mmHg 64%
    12:00 +24°C° 0.5 mm 1 m/s 745 mmHg 63%
    13:00 +24°C° 0.5 mm 1 m/s 745 mmHg 63%
    14:00 +25°C° 0.5 mm 1 m/s 745 mmHg 62%
    15:00 +24°C° 0.7 mm 1 m/s 745 mmHg 68%
    16:00 +23°C° 0.7 mm 1 m/s 745 mmHg 74%
    17:00 +23°C° 0.7 mm 1 m/s 745 mmHg 80%
    18:00 +21°C° 0.2 mm 1 m/s 745 mmHg 84%
    19:00 +20°C° 0.2 mm 1 m/s 744 mmHg 87%
    20:00 +18°C° 0.2 mm 1 m/s 744 mmHg 91%
    21:00 +15°C° 0 mm 0 m/s 744 mmHg 91%
    22:00 +15°C° 0 mm 0 m/s 745 mmHg 92%
    23:00 +14°C° 0 mm 0 m/s 745 mmHg 93%

    Mâine, 22 Iulie, Luni

    Timp Temperatura Precipitaţii Vânt Presiune Umiditate
    00:00 +13°C° 0 mm 0 m/s 745 mmHg 93%
    01:00 +13°C° 0 mm 0 m/s 744 mmHg 93%
    02:00 +13°C° 0 mm 0 m/s 744 mmHg 93%
    03:00 +13°C° 0 mm 0 m/s 744 mmHg 94%
    04:00 +13°C° 0 mm 0 m/s 744 mmHg 94%
    05:00 +13°C° 0 mm 0 m/s 744 mmHg 94%
    06:00 +15°C° 0 mm 0 m/s 744 mmHg 89%
    07:00 +17°C° 0 mm 0 m/s 744 mmHg 84%
    08:00 +19°C° 0 mm 0 m/s 744 mmHg 79%
    09:00 +21°C° 0 mm 0 m/s 744 mmHg 71%
    10:00 +22°C° 0 mm 0 m/s 744 mmHg 62%
    11:00 +24°C° 0 mm 0 m/s 744 mmHg 54%
    12:00 +24°C° 0 mm 0 m/s 743 mmHg 52%
    13:00 +24°C° 0 mm 0 m/s 743 mmHg 50%
    14:00 +24°C° 0 mm 0 m/s 743 mmHg 48%
    15:00 +26°C° 0 mm 1 m/s 743 mmHg 52%
    16:00 +25°C° 0 mm 1 m/s 743 mmHg 56%
    17:00 +25°C° 0 mm 1 m/s 743 mmHg 60%
    18:00 +23°C° 0 mm 1 m/s 743 mmHg 69%
    19:00 +21°C° 0 mm 1 m/s 742 mmHg 77%
    20:00 +19°C° 0 mm 1 m/s 742 mmHg 85%
    21:00 +19°C° 0 mm 1 m/s 742 mmHg 87%
    22:00 +18°C° 0 mm 1 m/s 742 mmHg 88%
    23:00 +16°C° 0 mm 1 m/s 742 mmHg 90%

    Poimâine, 23 Iulie, Marţi

    Timp Temperatura Precipitaţii Vânt Presiune Umiditate
    00:00 +16°C° 0 mm 1 m/s 742 mmHg 91%
    01:00 +16°C° 0 mm 1 m/s 742 mmHg 92%
    02:00 +15°C° 0 mm 1 m/s 742 mmHg 94%
    03:00 +15°C° 0 mm 1 m/s 742 mmHg 93%
    04:00 +15°C° 0 mm 1 m/s 742 mmHg 93%
    05:00 +15°C° 0 mm 1 m/s 742 mmHg 93%
    06:00 +18°C° 0.1 mm 1 m/s 742 mmHg 88%
    07:00 +20°C° 0.1 mm 1 m/s 742 mmHg 84%
    08:00 +20°C° 0.1 mm 2 m/s 742 mmHg 79%
    09:00 +21°C° 0.8 mm 2 m/s 742 mmHg 78%
    10:00 +21°C° 0.8 mm 2 m/s 742 mmHg 76%
    11:00 +23°C° 0.8 mm 2 m/s 742 mmHg 74%
    12:00 +24°C° 0.6 mm 2 m/s 742 mmHg 71%
    13:00 +24°C° 0.6 mm 2 m/s 743 mmHg 67%
    14:00 +25°C° 0.6 mm 2 m/s 743 mmHg 64%
    15:00 +24°C° 0.5 mm 2 m/s 743 mmHg 68%
    16:00 +24°C° 0.5 mm 2 m/s 743 mmHg 72%
    17:00 +23°C° 0.5 mm 1 m/s 743 mmHg 77%
    18:00 +22°C° 0.3 mm 1 m/s 743 mmHg 81%
    19:00 +20°C° 0.3 mm 1 m/s 743 mmHg 85%
    20:00 +18°C° 0.3 mm 1 m/s 743 mmHg 89%
    21:00 +18°C° 0 mm 1 m/s 743 mmHg 89%
    22:00 +16°C° 0 mm 1 m/s 743 mmHg 90%
    23:00 +16°C° 0 mm 1 m/s 744 mmHg 90%

    24 Iulie, Miercuri

    Timp Temperatura Precipitaţii Vânt Presiune Umiditate
    00:00 +15°C° 0 mm 1 m/s 744 mmHg 91%
    01:00 +15°C° 0 mm 1 m/s 744 mmHg 92%
    02:00 +14°C° 0 mm 1 m/s 744 mmHg 93%
    03:00 +14°C° 0 mm 1 m/s 744 mmHg 93%
    04:00 +14°C° 0 mm 1 m/s 744 mmHg 93%
    05:00 +14°C° 0 mm 1 m/s 744 mmHg 93%
    06:00 +16°C° 0 mm 1 m/s 744 mmHg 87%
    07:00 +19°C° 0 mm 1 m/s 744 mmHg 80%
    08:00 +21°C° 0 mm 1 m/s 744 mmHg 74%
    09:00 +21°C° 0 mm 2 m/s 744 mmHg 64%
    10:00 +24°C° 0 mm 2 m/s 745 mmHg 54%
    11:00 +26°C° 0 mm 2 m/s 745 mmHg 44%
    12:00 +26°C° 0 mm 2 m/s 745 mmHg 43%
    13:00 +26°C° 0 mm 3 m/s 745 mmHg 43%
    14:00 +26°C° 0 mm 3 m/s 745 mmHg 42%
    15:00 +26°C° 0 mm 3 m/s 745 mmHg 45%
    16:00 +26°C° 0 mm 2 m/s 745 mmHg 48%
    17:00 +25°C° 0 mm 2 m/s 745 mmHg 51%
    18:00 +23°C° 0 mm 2 m/s 745 mmHg 60%
    19:00 +21°C° 0 mm 1 m/s 745 mmHg 68%
    20:00 +19°C° 0 mm 1 m/s 745 mmHg 77%
    21:00 +18°C° 0 mm 1 m/s 745 mmHg 79%
    22:00 +15°C° 0 mm 0 m/s 745 mmHg 81%
    23:00 +14°C° 0 mm 0 m/s 746 mmHg 83%

    25 Iulie, Joi

    Timp Temperatura Precipitaţii Vânt Presiune Umiditate
    00:00 +14°C° 0 mm 0 m/s 746 mmHg 84%
    01:00 +14°C° 0 mm 0 m/s 746 mmHg 85%
    02:00 +13°C° 0 mm 0 m/s 746 mmHg 86%
    03:00 +13°C° 0 mm 0 m/s 746 mmHg 86%
    04:00 +14°C° 0 mm 0 m/s 746 mmHg 86%
    05:00 +14°C° 0 mm 0 m/s 746 mmHg 86%
    06:00 +16°C° 0 mm 0 m/s 746 mmHg 79%
    07:00 +20°C° 0 mm 1 m/s 747 mmHg 71%
    08:00 +22°C° 0 mm 1 m/s 747 mmHg 64%
    09:00 +23°C° 0 mm 1 m/s 747 mmHg 58%
    10:00 +25°C° 0 mm 1 m/s 747 mmHg 51%
    11:00 +26°C° 0 mm 2 m/s 747 mmHg 45%
    12:00 +27°C° 0 mm 2 m/s 747 mmHg 44%
    13:00 +27°C° 0 mm 2 m/s 747 mmHg 44%
    14:00 +27°C° 0 mm 2 m/s 746 mmHg 43%
    15:00 +27°C° 0 mm 2 m/s 746 mmHg 47%
    16:00 +27°C° 0 mm 2 m/s 746 mmHg 51%
    17:00 +26°C° 0 mm 2 m/s 746 mmHg 55%
    18:00 +24°C° 0 mm 2 m/s 746 mmHg 63%
    19:00 +23°C° 0 mm 2 m/s 746 mmHg 72%
    20:00 +20°C° 0 mm 2 m/s 746 mmHg 80%
    21:00 +20°C° 0 mm 1 m/s 746 mmHg 85%
    22:00 +19°C° 0 mm 1 m/s 747 mmHg 90%
    23:00 +18°C° 0 mm 1 m/s 747 mmHg 95%

    26 Iulie, Vineri

    Timp Temperatura Precipitaţii Vânt Presiune Umiditate
    00:00 +18°C° 0 mm 1 m/s 747 mmHg 95%
    01:00 +16°C° 0 mm 2 m/s 747 mmHg 96%
    02:00 +16°C° 0 mm 2 m/s 747 mmHg 97%
    03:00 +16°C° 0 mm 2 m/s 747 mmHg 95%
    04:00 +15°C° 0 mm 2 m/s 747 mmHg 93%
    05:00 +15°C° 0 mm 2 m/s 747 mmHg 90%
    06:00 +16°C° 0 mm 2 m/s 747 mmHg 81%
    07:00 +18°C° 0 mm 3 m/s 747 mmHg 71%
    08:00 +20°C° 0 mm 3 m/s 747 mmHg 61%
    09:00 +21°C° 0 mm 3 m/s 747 mmHg 57%
    10:00 +22°C° 0 mm 3 m/s 747 mmHg 53%
    11:00 +24°C° 0 mm 3 m/s 747 mmHg 49%
    12:00 +25°C° 0 mm 3 m/s 747 mmHg 49%
    13:00 +25°C° 0 mm 3 m/s 747 mmHg 48%
    14:00 +25°C° 0 mm 3 m/s 746 mmHg 48%
    15:00 +25°C° 0 mm 3 m/s 746 mmHg 51%
    16:00 +24°C° 0 mm 3 m/s 746 mmHg 53%
    17:00 +24°C° 0 mm 3 m/s 746 mmHg 56%
    18:00 +21°C° 0 mm 3 m/s 746 mmHg 64%
    19:00 +19°C° 0 mm 2 m/s 746 mmHg 72%
    20:00 +17°C° 0 mm 2 m/s 746 mmHg 80%
    21:00 +16°C° 0 mm 2 m/s 746 mmHg 81%
    22:00 +15°C° 0 mm 2 m/s 746 mmHg 83%
    23:00 +15°C° 0 mm 2 m/s 746 mmHg 84%
    Arată mai mult